Location: Dayton
(39.7590°N, 84.1920°W)
Time: 18:02:52
(UTC-04:00)

ATLAS CENTAUR R/B - Visible Passes

Search period start: 29 July 2015 00:00
Search period end: 08 August 2015 00:00
Orbit: 238 x 8831 km, 57.3° (Epoch: 20 June)

Date Brightness Start Highest point End Pass type
(mag) Time Alt. Az. Time Alt. Az. Time Alt. Az.
02 Aug 8.1 05:50:01 10° SE 06:02:50 15° ESE 06:15:17 10° E visible
05 Aug 7.9 05:41:20 10° SSE 06:02:14 20° ESE 06:16:18 10° ENE visible
07 Aug 8.1 04:51:17 10° ESE 04:51:46 10° ESE 04:59:16 10° ESE visible
